EW4405 Weather Reports


time (UTC)temp
F
wind
direction
speed
knots
gust
knots
rain 1hr
in
rain 24hr
in
rain mn
in
humidity
%
barometer
mb
20260504192042 82 175 2.6 7.0 0.00 0.00 0.00 58 1013.1
20260504191310 82 168 2.6 7.0 0.00 0.00 0.00 56 1013.1
20260504191042 82 186 2.6 7.8 0.00 0.00 0.00 56 1013.2
20260504190311 82 173 3.5 7.8 0.00 0.00 0.00 57 1013.2
20260504185811 83 182 3.5 7.8 0.00 0.00 0.00 55 1013.2
20260504185310 83 173 3.5 7.0 0.00 0.00 0.00 55 1013.4
20260504184811 82 219 3.5 7.8 0.00 0.00 0.00 55 1013.3
20260504184312 82 187 4.3 7.8 0.00 0.00 0.00 55 1013.4
20260504183811 82 204 4.3 8.7 0.00 0.00 0.00 55 1013.5
20260504183301 82 202 4.3 8.7 0.00 0.00 0.00 57 1013.4
20260504182802 81 220 3.5 8.7 0.00 0.00 0.00 55 1013.4
20260504182304 82 184 3.5 8.7 0.00 0.00 0.00 54 1013.6
20260504181803 82 174 3.5 7.8 0.00 0.00 0.00 55 1013.6
20260504181303 82 143 3.5 7.8 0.00 0.00 0.00 56 1013.6
20260504180803 82 205 3.5 8.7 0.00 0.00 0.00 55 1013.7
20260504180303 82 157 2.6 8.7 0.00 0.00 0.00 55 1014.0
20260504175802 82 233 2.6 6.1 0.00 0.00 0.00 57 1014.0
20260504175304 81 195 2.6 5.2 0.00 0.00 0.00 56 1014.0
20260504175010 80 190 1.7 5.2 0.00 0.00 0.00 58 1014.1
20260504174249 80 185 3.5 12.2 0.00 0.00 0.00 57 1014.3
20260504174010 80 174 3.5 12.2 0.00 0.00 0.00 56 1014.3
20260504173451 80 184 3.5 9.6 0.00 0.00 0.00 57 1014.1
20260504172724 80 205 4.3 9.6 0.00 0.00 0.00 57 1014.4
20260504172219 80 194 3.5 9.6 0.00 0.00 0.00 57 1014.5
20260504171707 80 207 3.5 7.0 0.00 0.00 0.00 58 1014.7
20260504171201 80 195 4.3 7.8 0.00 0.00 0.00 58 1014.5
20260504170919 80 0 3.5 8.7 0.00 0.00 0.00 57 1014.8
20260504170145 80 226 3.5 8.7 0.00 0.00 0.00 57 1014.7
20260504170123 79 0 3.5 9.6 0.00 0.00 0.00 58 1014.9
20260504151013 74 181 2.6 7.0 0.00 0.00 0.00 67 1015.4
20260504150511 74 200 3.5 11.3 0.00 0.00 0.00 66 1015.4
20260504141000 69 0 0.0 2.6 0.00 0.00 0.00 71 1015.6
20260504140500 68 0 0.9 4.3 0.00 0.00 0.00 72 1015.5
20260504130443 61 0 0.0 0.9 0.00 0.00 0.00 80 1015.4
20260504110323 58 0 0.0 0.0 0.00 0.00 0.00 81 1015.2
20260504100311 58 0 0.0 0.0 0.00 0.00 0.00 80 1015.6
20260504081802 59 0 0.0 0.0 0.00 0.00 0.00 75 1015.9
20260504081301 59 0 0.0 0.0 0.00 0.00 0.00 75 1016.1
20260504080756 59 0 0.0 0.0 0.00 0.00 0.00 75 1016.2
20260504080256 60 0 0.0 0.0 0.00 0.00 0.00 75 1016.4
20260504050718 61 0 0.0 1.7 0.00 0.00 0.00 73 1018.1
20260504050216 61 0 0.0 1.7 0.00 0.00 0.00 73 1018.0
20260504045941 61 0 0.0 0.9 0.00 0.00 0.00 73 1018.0
20260504045218 62 0 0.0 0.0 0.00 0.00 0.00 71 1018.0
20260504044941 62 0 0.0 0.0 0.00 0.00 0.00 71 1018.0
20260504044218 62 0 0.0 0.0 0.00 0.00 0.00 70 1018.1
20260504043713 62 0 0.0 0.0 0.00 0.00 0.00 70 1018.1
20260504043212 63 0 0.0 0.0 0.00 0.00 0.00 70 1018.1
20260504042934 63 0 0.0 0.0 0.00 0.00 0.00 69 1018.2
20260504042211 63 0 0.0 0.0 0.00 0.00 0.00 69 1018.2
20260504041711 63 0 0.0 0.0 0.00 0.00 0.00 69 1018.2
20260504041213 64 0 0.0 0.9 0.00 0.00 0.00 68 1018.2
20260504040710 64 0 0.0 1.7 0.00 0.00 0.00 67 1018.1
20260504040212 64 0 0.0 1.7 0.00 0.00 0.00 67 1018.0
20260504035704 64 0 0.0 1.7 0.00 0.00 0.00 67 1017.9
20260504035203 65 0 0.0 0.9 0.00 0.00 0.00 66 1018.0
20260504034703 65 0 0.0 0.9 0.00 0.00 0.00 66 1018.0
20260504034204 65 0 0.0 0.9 0.00 0.00 0.00 66 1018.2
20260504033703 65 0 0.0 0.9 0.00 0.00 0.00 65 1018.3
20260504033159 65 0 0.0 0.9 0.00 0.00 0.00 64 1018.2
20260504032658 66 0 0.0 0.9 0.00 0.00 0.00 64 1018.2
20260504032154 66 0 0.0 2.6 0.00 0.00 0.00 63 1018.1
20260504031654 66 0 0.0 2.6 0.00 0.00 0.00 63 1018.0
20260504031153 67 0 0.0 2.6 0.00 0.00 0.00 63 1018.0
20260504030650 67 0 0.9 1.7 0.00 0.00 0.00 62 1018.1
20260504030412 67 0 0.9 2.6 0.00 0.00 0.00 62 1018.1
20260504025912 67 0 0.9 2.6 0.00 0.00 0.00 62 1018.0
20260504025142 67 0 0.9 4.3 0.00 0.00 0.00 61 1018.0
20260504024635 67 0 0.9 4.3 0.00 0.00 0.00 61 1018.0
20260504024349 68 0 0.9 3.5 0.00 0.00 0.00 60 1018.0
20260504023620 68 0 0.9 3.5 0.00 0.00 0.00 60 1018.0
20260504023113 68 0 0.9 4.3 0.00 0.00 0.00 60 1017.9
20260504022603 68 0 0.9 4.3 0.00 0.00 0.00 59 1017.9
20260504022059 68 0 0.9 2.6 0.00 0.00 0.00 59 1017.8
20260504021551 68 0 0.0 2.6 0.00 0.00 0.00 58 1017.8
20260504021042 69 0 0.0 2.6 0.00 0.00 0.00 57 1017.7
20260504020535 69 0 0.0 2.6 0.00 0.00 0.00 57 1017.7
20260504020028 69 0 0.0 1.7 0.00 0.00 0.00 56 1017.7
20260504015519 69 0 0.0 2.6 0.00 0.00 0.00 55 1017.6
20260504015234 70 0 0.0 1.7 0.00 0.00 0.00 55 1017.7
20260504014508 70 0 0.9 3.5 0.00 0.00 0.00 54 1017.7
20260504013959 70 0 0.9 3.5 0.00 0.00 0.00 54 1017.7
20260504013451 70 0 0.9 5.2 0.00 0.00 0.00 53 1017.7
20260504012945 71 0 1.7 5.2 0.00 0.00 0.00 53 1017.7
20260504012435 71 0 0.9 4.3 0.00 0.00 0.00 52 1017.7
20260504011930 71 0 1.7 4.3 0.00 0.00 0.00 52 1017.7
20260504011423 72 196 0.9 3.5 0.00 0.00 0.00 51 1017.6
20260504010914 72 188 0.9 5.2 0.00 0.00 0.00 51 1017.6
20260504010631 72 187 0.9 5.2 0.00 0.00 0.00 49 1017.5
20260504005901 73 185 0.9 4.3 0.00 0.00 0.00 49 1017.5
20260504005351 73 186 0.9 5.2 0.00 0.00 0.00 49 1017.4
20260504004845 73 178 0.9 5.2 0.00 0.00 0.00 48 1017.6
20260504004340 73 186 0.9 3.5 0.00 0.00 0.00 48 1017.6
20260504003830 74 178 1.7 4.3 0.00 0.00 0.00 47 1017.6
20260504003323 74 181 1.7 5.2 0.00 0.00 0.00 47 1017.4
20260504002817 74 182 1.7 7.0 0.00 0.00 0.00 46 1017.6
20260504002308 75 210 2.6 7.0 0.00 0.00 0.00 46 1017.5
20260504002029 75 168 1.7 6.1 0.00 0.00 0.00 45 1017.5
20260504001304 76 166 1.7 6.1 0.00 0.00 0.00 45 1017.4
20260504000803 76 186 1.7 6.1 0.00 0.00 0.00 44 1017.4
20260504000523 77 174 1.7 7.0 0.00 0.00 0.00 44 1017.5
20260503235800 77 194 1.7 7.0 0.00 0.00 0.00 43 1017.5
20260503235528 78 191 2.6 7.0 0.00 0.00 0.00 43 1017.5
20260503234800 78 207 2.6 7.0 0.00 0.00 0.00 41 1017.6
20260503234302 79 167 2.6 7.0 0.00 0.00 0.00 41 1017.5
20260503233800 79 182 2.6 8.7 0.00 0.00 0.00 41 1017.5
20260503233301 80 159 1.7 8.7 0.00 0.00 0.00 40 1017.7
20260503232759 80 182 1.7 6.1 0.00 0.00 0.00 40 1017.8
20260503232259 80 174 1.7 6.1 0.00 0.00 0.00 40 1017.8
20260503231758 80 180 1.7 6.1 0.00 0.00 0.00 39 1017.8
20260503231259 80 188 1.7 6.1 0.00 0.00 0.00 39 1017.7
20260503231020 80 180 1.7 6.1 0.00 0.00 0.00 39 1017.8
20260503230514 80 200 2.6 6.1 0.00 0.00 0.00 40 1017.8
20260503225747 80 161 1.7 6.1 0.00 0.00 0.00 39 1017.7
20260503225237 81 180 1.7 6.1 0.00 0.00 0.00 40 1017.8
20260503224731 81 163 1.7 7.8 0.00 0.00 0.00 40 1017.9
20260503224713 81 169 2.6 7.8 0.00 0.00 0.00 39 1018.0
20260503223716 81 178 2.6 6.1 0.00 0.00 0.00 38 1018.0
20260503223210 81 207 1.7 6.1 0.00 0.00 0.00 40 1018.0
20260503222703 81 214 2.6 6.1 0.00 0.00 0.00 39 1018.2
20260503222155 81 228 2.6 7.0 0.00 0.00 0.00 38 1018.2
20260503221912 81 229 2.6 7.0 0.00 0.00 0.00 38 1018.3
20260503221155 82 185 2.6 11.3 0.00 0.00 0.00 38 1018.4
20260503220654 82 174 2.6 11.3 0.00 0.00 0.00 37 1018.3
20260503220154 82 194 0.9 6.1 0.00 0.00 0.00 39 1018.3
20260503215653 82 178 0.0 2.6 0.00 0.00 0.00 37 1018.2
20260503215153 81 182 0.0 4.3 0.00 0.00 0.00 33 1018.2
20260503214654 82 182 0.9 4.3 0.00 0.00 0.00 34 1018.3
20260503214417 82 152 0.9 4.3 0.00 0.00 0.00 32 1018.4
20260503213651 83 212 0.9 4.3 0.00 0.00 0.00 35 1018.6
20260503213153 82 178 1.7 6.1 0.00 0.00 0.00 35 1018.7
20260503212650 82 175 1.7 6.1 0.00 0.00 0.00 32 1018.7
20260503212149 82 196 1.7 6.1 0.00 0.00 0.00 35 1018.8
20260503211648 82 184 0.9 5.2 0.00 0.00 0.00 33 1018.9
20260503211148 82 191 0.9 5.2 0.00 0.00 0.00 31 1018.9
20260503210644 82 194 0.9 6.1 0.00 0.00 0.00 33 1018.9
20260503210144 82 186 0.9 6.1 0.00 0.00 0.00 33 1019.1
20260503205645 82 140 0.9 2.6 0.00 0.00 0.00 31 1019.1
20260503205146 82 197 1.7 7.0 0.00 0.00 0.00 32 1019.1
20260503204641 82 196 2.6 7.0 0.00 0.00 0.00 31 1019.2
20260503204140 82 184 2.6 7.0 0.00 0.00 0.00 30 1019.3
20260503203641 82 208 0.9 6.1 0.00 0.00 0.00 32 1019.3
20260503203141 82 58 0.9 3.5 0.00 0.00 0.00 31 1019.3
20260503202638 82 32 0.9 2.6 0.00 0.00 0.00 34 1019.5
20260503202357 83 175 0.9 4.3 0.00 0.00 0.00 33 1019.7
20260503202236 82 155 0.9 3.5 0.00 0.00 0.00 30 1019.7
20260503201136 82 173 0.9 4.3 0.00 0.00 0.00 33 1019.8
20260503200858 82 186 0.9 5.2 0.00 0.00 0.00 31 1019.9
20260503200139 82 192 0.9 5.2 0.00 0.00 0.00 33 1020.0
20260503195635 82 189 0.9 4.3 0.00 0.00 0.00 32 1020.0
20260503195132 81 124 0.9 4.3 0.00 0.00 0.00 30 1020.0
20260503194858 81 111 0.9 4.3 0.00 0.00 0.00 32 1020.1
20260503194132 81 171 1.7 7.0 0.00 0.00 0.00 31 1020.1
20260503193632 81 167 1.7 7.0 0.00 0.00 0.00 36 1020.2
20260503193400 81 65 1.7 7.0 0.00 0.00 0.00 33 1020.2
20260503192633 81 181 1.7 7.0 0.00 0.00 0.00 33 1020.4